Litchfield, MN

5:52 PM CST on December 15, 2019 (GMT -0600)
Litchfield Municipal

Weather History for KLJF - November, 2019

Change the Weather History Date:

Saturday, November 16, 2019

  Actual Average Record
Temperature  
Mean Temperature 40 °F -  
Max Temperature 48 °F 40 °F 68 °F (1953)
Min Temperature 33 °F 22 °F -5 °F (1959)
Degree Days  
Heating Degree Days 24    
Moisture  
Dew Point 30 °F    
Average Humidity 69    
Maximum Humidity 100    
Minimum Humidity 43    
Precipitation  
Precipitation 0.00 in - - ()
Sea Level Pressure  
Sea Level Pressure 30.03 in    
Wind  
Wind Speed 8 mph ()    
Max Wind Speed 14 mph    
Max Gust Speed 24 mph    
Visibility 9.7 miles    
Events Rain    
Averages and records for this station are not official NWS values.
T = Trace of Precipitation, MM = Missing Value Source: Averaged Metar Reports

Daily Weather History Graph

Daily Weather History Graph

Search for Another Location

Airport or City:

Astronomy

Nov. 16, 2019 Rise Set
Actual Time 7:17 AM CST 4:48 PM CST
Civil Twilight 6:45 AM CST 5:19 PM CST
Nautical Twilight 6:09 AM CST 5:55 PM CST
Astronomical Twilight 5:34 AM CST 6:30 PM CST
Moon 8:16 PM CST (11/16) 11:16 AM CST (11/16)
Length of Visible Light 10h 34m
Length of Day
9h 30m
Waning Gibbous, 82% of the Moon is Illuminated
Nov 16
Waning Gibbous
Nov 19
Last Quarter
Nov 26
New
Dec 4
First Quarter
Dec 11
Full

Hourly Weather History & Observations

Time (CST) Temp. Windchill Dew Point Humidity Pressure Visibility Wind Dir Wind Speed Gust Speed Precip Events Conditions
12:15 AM 35.6 °F 29.2 °F 32.0 °F 87% 30.20 in 10.0 mi SE 8.1 mph - N/A   Unknown
12:35 AM 35.6 °F 28.6 °F 32.0 °F 87% 30.19 in 10.0 mi SE 9.2 mph - N/A   Unknown
12:36 AM 35.6 °F 28.6 °F 32.0 °F 87% 30.19 in 10.0 mi SE 9.2 mph - N/A   Unknown
12:55 AM 35.6 °F 29.2 °F 32.0 °F 87% 30.19 in 10.0 mi SE 8.1 mph - N/A   Unknown
12:56 AM 35.6 °F 29.2 °F 32.0 °F 87% 30.19 in 10.0 mi SE 8.1 mph - N/A   Unknown
1:18 AM 35.6 °F 28.0 °F 32.0 °F 87% 30.17 in 10.0 mi SE 10.4 mph - N/A   Unknown
1:37 AM 35.6 °F 28.6 °F 32.0 °F 87% 30.17 in 10.0 mi SE 9.2 mph - N/A   Unknown
1:55 AM 33.8 °F 25.8 °F 30.2 °F 87% 30.16 in 10.0 mi SE 10.4 mph - N/A   Unknown
1:56 AM 33.8 °F 26.4 °F 30.2 °F 87% 30.16 in 10.0 mi SE 9.2 mph - N/A   Unknown
2:15 AM 35.6 °F 28.6 °F 32.0 °F 87% 30.16 in 10.0 mi SE 9.2 mph - N/A   Unknown
2:16 AM 35.6 °F 28.6 °F 32.0 °F 87% 30.16 in 10.0 mi SE 9.2 mph - N/A   Unknown
2:35 AM 35.6 °F 28.6 °F 32.0 °F 87% 30.15 in 10.0 mi SE 9.2 mph - N/A   Unknown
2:39 AM 35.6 °F 29.2 °F 32.0 °F 87% 30.15 in 10.0 mi SE 8.1 mph - N/A   Unknown
2:57 AM 35.6 °F 29.2 °F 30.2 °F 81% 30.14 in 10.0 mi SE 8.1 mph - N/A   Unknown
3:16 AM 35.6 °F 29.2 °F 30.2 °F 81% 30.14 in 10.0 mi SE 8.1 mph - N/A   Unknown
3:35 AM 35.6 °F 27.5 °F 30.2 °F 81% 30.13 in 10.0 mi SE 11.5 mph 16.1 mph N/A   Unknown
3:36 AM 35.6 °F 28.0 °F 30.2 °F 81% 30.13 in 10.0 mi SE 10.4 mph 16.1 mph N/A   Unknown
3:55 AM 35.6 °F 29.2 °F 30.2 °F 81% 30.12 in 10.0 mi SE 8.1 mph - N/A   Unknown
3:56 AM 35.6 °F 29.2 °F 30.2 °F 81% 30.12 in 10.0 mi SSE 8.1 mph - N/A   Unknown
4:18 AM 35.6 °F 28.6 °F 30.2 °F 81% 30.12 in 10.0 mi SSE 9.2 mph 16.1 mph N/A   Unknown
4:36 AM 35.6 °F 28.0 °F 30.2 °F 81% 30.12 in 10.0 mi SSE 10.4 mph - N/A   Unknown
4:56 AM 35.6 °F 29.2 °F 30.2 °F 81% 30.11 in 10.0 mi SSE 8.1 mph 16.1 mph N/A   Unknown
5:15 AM 37.4 °F 30.3 °F 30.2 °F 75% 30.11 in 10.0 mi SSE 10.4 mph 16.1 mph N/A   Unknown
5:16 AM 37.4 °F 30.3 °F 30.2 °F 75% 30.11 in 10.0 mi SSE 10.4 mph 16.1 mph N/A   Unknown
5:35 AM 37.4 °F 30.8 °F 30.2 °F 75% 30.10 in 10.0 mi SSE 9.2 mph 17.3 mph N/A   Unknown
5:39 AM 37.4 °F 30.8 °F 30.2 °F 75% 30.10 in 10.0 mi SSE 9.2 mph 17.3 mph N/A   Unknown
5:57 AM 37.4 °F 29.8 °F 30.2 °F 75% 30.10 in 10.0 mi SSE 11.5 mph 17.3 mph N/A   Unknown
6:15 AM 37.4 °F 29.8 °F 30.2 °F 75% 30.09 in 10.0 mi SSE 11.5 mph 23.0 mph N/A   Unknown
6:35 AM 37.4 °F 30.8 °F 30.2 °F 75% 30.09 in 10.0 mi SSE 9.2 mph 17.3 mph N/A   Unknown
6:55 AM 37.4 °F 29.8 °F 30.2 °F 75% 30.09 in 10.0 mi SSE 11.5 mph 20.7 mph N/A   Unknown
7:18 AM 37.4 °F 29.8 °F 30.2 °F 75% 30.08 in 10.0 mi SSE 11.5 mph 19.6 mph N/A   Unknown
7:36 AM 37.4 °F 29.3 °F 28.4 °F 70% 30.07 in 10.0 mi SSE 12.7 mph 20.7 mph N/A   Unknown
7:56 AM 37.4 °F 28.9 °F 28.4 °F 70% 30.08 in 10.0 mi SSE 13.8 mph 23.0 mph N/A   Unknown
8:15 AM 37.4 °F 30.3 °F 28.4 °F 70% 30.08 in 10.0 mi SSE 10.4 mph 20.7 mph N/A   Unknown
8:35 AM 37.4 °F 29.3 °F 28.4 °F 70% 30.08 in 10.0 mi SSE 12.7 mph 17.3 mph N/A   Unknown
8:40 AM 37.4 °F 29.3 °F 28.4 °F 70% 30.08 in 10.0 mi SSE 12.7 mph 20.7 mph N/A   Unknown
8:58 AM 39.2 °F 31.6 °F 28.4 °F 65% 30.07 in 10.0 mi SSE 12.7 mph 21.9 mph N/A   Unknown
9:16 AM 39.2 °F 31.2 °F 28.4 °F 65% 30.07 in 10.0 mi SSE 13.8 mph 24.2 mph N/A   Unknown
9:35 AM 39.2 °F 32.0 °F 28.4 °F 65% 30.06 in 10.0 mi SSE 11.5 mph 23.0 mph N/A   Unknown
9:36 AM 39.2 °F 31.6 °F 28.4 °F 65% 30.06 in 10.0 mi SSE 12.7 mph 23.0 mph N/A   Unknown
9:55 AM 39.2 °F 31.6 °F 28.4 °F 65% 30.06 in 10.0 mi SSE 12.7 mph 20.7 mph N/A   Unknown
9:56 AM 39.2 °F 32.0 °F 28.4 °F 65% 30.06 in 10.0 mi SSE 11.5 mph 20.7 mph N/A   Unknown
10:19 AM 41.0 °F 34.7 °F 28.4 °F 61% 30.06 in 10.0 mi SSE 10.4 mph 20.7 mph N/A   Unknown
10:36 AM 42.8 °F 35.8 °F 28.4 °F 57% 30.05 in 10.0 mi SSE 13.8 mph 20.7 mph N/A   Unknown
10:56 AM 44.6 °F 38.1 °F 28.4 °F 53% 30.05 in 10.0 mi SSE 13.8 mph 19.6 mph N/A   Unknown
11:15 AM 44.6 °F 38.4 °F 28.4 °F 53% 30.04 in 10.0 mi SSE 12.7 mph 23.0 mph N/A   Unknown
11:16 AM 44.6 °F 39.2 °F 28.4 °F 53% 30.04 in 10.0 mi SSE 10.4 mph 23.0 mph N/A   Unknown
11:35 AM 44.6 °F 39.2 °F 28.4 °F 53% 30.02 in 10.0 mi SSE 10.4 mph 19.6 mph N/A   Unknown
11:58 AM 48.2 °F - 28.4 °F 46% 30.01 in 10.0 mi SSE 10.4 mph 20.7 mph N/A   Unknown
12:15 PM 48.2 °F - 28.4 °F 46% 30.00 in 10.0 mi SSE 9.2 mph 19.6 mph N/A   Unknown
12:35 PM 46.4 °F 42.4 °F 26.6 °F 46% 30.00 in 10.0 mi SSE 8.1 mph 18.4 mph N/A   Unknown
12:36 PM 46.4 °F 42.9 °F 26.6 °F 46% 30.00 in 10.0 mi SSE 6.9 mph 18.4 mph N/A   Unknown
12:55 PM 48.2 °F - 26.6 °F 43% 30.00 in 10.0 mi SSE 11.5 mph 16.1 mph N/A   Unknown
12:56 PM 48.2 °F - 26.6 °F 43% 29.99 in 10.0 mi SSE 11.5 mph 16.1 mph N/A   Unknown
1:55 PM 46.4 °F 41.9 °F 26.6 °F 46% 29.97 in 10.0 mi SSE 9.2 mph 19.6 mph N/A   Unknown
1:56 PM 46.4 °F 42.4 °F 26.6 °F 46% 29.97 in 10.0 mi SSE 8.1 mph 19.6 mph N/A   Unknown
2:15 PM 46.4 °F 41.1 °F 26.6 °F 46% 29.96 in 10.0 mi SSE 11.5 mph 19.6 mph N/A   Unknown
2:16 PM 46.4 °F 41.5 °F 26.6 °F 46% 29.96 in 10.0 mi SSE 10.4 mph 18.4 mph N/A   Unknown
2:35 PM 46.4 °F 41.5 °F 26.6 °F 46% 29.95 in 10.0 mi SSE 10.4 mph 17.3 mph N/A   Unknown
2:39 PM 44.6 °F 38.8 °F 26.6 °F 49% 29.94 in 10.0 mi SSE 11.5 mph 17.3 mph N/A   Unknown
2:57 PM 44.6 °F 38.8 °F 26.6 °F 49% 29.95 in 10.0 mi SSE 11.5 mph 17.3 mph N/A   Unknown
3:15 PM 44.6 °F 41.4 °F 26.6 °F 49% 29.96 in 10.0 mi SSE 5.8 mph 17.3 mph N/A   Unknown
3:35 PM 44.6 °F 40.7 °F 28.4 °F 53% 29.96 in 10.0 mi SSE 6.9 mph - N/A   Unknown
3:36 PM 44.6 °F 40.2 °F 28.4 °F 53% 29.97 in 10.0 mi SSE 8.1 mph - N/A   Unknown
3:55 PM 44.6 °F 40.2 °F 28.4 °F 53% 29.96 in 10.0 mi SSE 8.1 mph - N/A   Unknown
3:56 PM 44.6 °F 40.7 °F 28.4 °F 53% 29.95 in 10.0 mi SSE 6.9 mph - N/A   Unknown
4:19 PM 44.6 °F 40.2 °F 28.4 °F 53% 29.95 in 10.0 mi SSE 8.1 mph - N/A   Unknown
4:37 PM 44.6 °F 40.7 °F 28.4 °F 53% 29.96 in 10.0 mi SSE 6.9 mph - N/A   Unknown
4:56 PM 44.6 °F 40.7 °F 28.4 °F 53% 29.96 in 10.0 mi SSE 6.9 mph - N/A   Unknown
5:15 PM 44.6 °F 41.4 °F 28.4 °F 53% 29.96 in 10.0 mi SSE 5.8 mph - N/A   Unknown
5:35 PM 44.6 °F 40.7 °F 30.2 °F 57% 29.97 in 10.0 mi SSE 6.9 mph - N/A   Unknown
5:39 PM 44.6 °F 40.7 °F 30.2 °F 57% 29.97 in 10.0 mi SSE 6.9 mph - N/A   Unknown
5:57 PM 44.6 °F 40.7 °F 30.2 °F 57% 29.96 in 10.0 mi SSE 6.9 mph - N/A   Unknown
6:15 PM 44.6 °F 40.7 °F 30.2 °F 57% 29.97 in 10.0 mi SSE 6.9 mph - N/A   Unknown
6:35 PM 42.8 °F 38.0 °F 30.2 °F 61% 29.97 in 10.0 mi SSE 8.1 mph - N/A   Unknown
6:36 PM 42.8 °F 38.0 °F 30.2 °F 61% 29.97 in 10.0 mi SSE 8.1 mph - N/A   Unknown
6:55 PM 42.8 °F 38.0 °F 30.2 °F 61% 29.96 in 10.0 mi SSE 8.1 mph - N/A   Unknown
6:56 PM 42.8 °F 38.0 °F 30.2 °F 61% 29.96 in 10.0 mi SSE 8.1 mph - N/A   Unknown
7:18 PM 42.8 °F 38.6 °F 32.0 °F 66% 29.96 in 10.0 mi SSE 6.9 mph - N/A   Unknown
7:36 PM 42.8 °F 38.6 °F 32.0 °F 66% 29.96 in 10.0 mi SSE 6.9 mph - N/A   Unknown
7:56 PM 42.8 °F 38.0 °F 32.0 °F 66% 29.96 in 10.0 mi SSE 8.1 mph - N/A   Unknown
8:15 PM 42.8 °F 38.0 °F 32.0 °F 66% 29.96 in 10.0 mi SSE 8.1 mph - N/A   Unknown
8:16 PM 42.8 °F 38.6 °F 32.0 °F 66% 29.96 in 10.0 mi SSE 6.9 mph - N/A   Unknown
8:35 PM 41.0 °F 38.0 °F 32.0 °F 70% 29.96 in 10.0 mi SSE 4.6 mph - N/A   Unknown
8:39 PM 41.0 °F 38.0 °F 33.8 °F 76% 29.96 in 10.0 mi SSE 4.6 mph - N/A   Unknown
8:57 PM 41.0 °F 39.0 °F 33.8 °F 76% 29.95 in 10.0 mi SSE 3.5 mph - N/A   Unknown
9:16 PM 41.0 °F 38.0 °F 33.8 °F 76% 29.95 in 10.0 mi SSE 4.6 mph - N/A   Unknown
9:35 PM 41.0 °F 39.0 °F 33.8 °F 76% 29.94 in 10.0 mi SSE 3.5 mph - N/A   Light Drizzle
9:55 PM 39.2 °F - 33.8 °F 81% 29.95 in 10.0 mi Calm Calm - N/A Rain Light Rain
10:18 PM 39.2 °F - 35.6 °F 87% 29.94 in 7.0 mi Calm Calm - N/A   Drizzle
10:36 PM 37.4 °F - 35.6 °F 93% 29.94 in 10.0 mi Calm Calm - N/A   Light Drizzle
10:56 PM 37.4 °F - 35.6 °F 93% 29.94 in 10.0 mi Calm Calm - N/A   Unknown
11:15 PM 37.4 °F - 35.6 °F 93% 29.94 in 7.0 mi Calm Calm - N/A   Drizzle
11:16 PM 37.4 °F - 37.4 °F 100% 29.94 in 7.0 mi Calm Calm - N/A   Drizzle
11:35 PM 37.4 °F - 37.4 °F 100% 29.93 in 4.0 mi Calm Calm - N/A   Drizzle
11:39 PM 37.4 °F - 37.4 °F 100% 29.94 in 4.0 mi Calm Calm - N/A   Drizzle
11:58 PM 37.4 °F - 37.4 °F 100% 29.94 in 4.0 mi Calm Calm - N/A   Drizzle